#timestamp,LO_Frequency,Hit,StdDev 
1512172815.1,286047002.5,N
1512172835.9,286047003.7,N
1512172855.7,286047001.6,N
1512172875.5,286047003.9,Y
1512172895.4,286046998.7,P
1512172915.2,286047002.0,N
1512172935.0,286047005.0,P
1512172935.9,286047005.0,N
1512172955.8,286047006.7,N
1512172975.6,286047006.1,N
1512172995.4,286047008.0,Y
1512173015.3,286047009.0,P
1512173035.1,286047001.5,N
1512173055.8,286047002.4,N
1512173075.7,286047000.1,N
1512173095.5,286046999.1,N
1512173115.3,286046997.5,N
1512173135.2,286046989.3,Y
1512173155.9,286046983.7,P
1512173175.7,286046982.4,N
1512173195.6,286046981.6,N
1512173215.4,286046976.3,N
1512173235.2,286046973.0,Y
1512173255.1,286046984.9,P
1512173256.0,286046984.9,P
1512173275.8,286046981.7,P
1512173295.6,286046982.0,Y
1512173315.5,286046993.6,P
1512173335.3,286046990.3,N
1512173355.1,286046990.3,N
1512173375.9,286046991.9,N
1512173395.7,286046988.8,Y
1512173415.5,286046994.0,P
1512173435.4,286046987.8,P
1512173455.2,286046989.8,P
1512173475.0,286046989.7,Y
1512173475.9,286046989.7,P
1512173495.8,286046997.4,P
1512173515.6,286046995.0,N
1512173535.4,286046990.1,Y
1512173555.3,286046995.6,P
1512173575.1,286046992.1,P
1512173576.0,286046992.1,P
1512173595.8,286046989.8,Y
1512173615.7,286046996.0,P
1512173635.5,286046992.6,P
1512173655.3,286046993.0,P
1512173675.2,286046993.5,Y
1512173695.9,286047001.2,P
1512173715.7,286046998.7,N
1512173735.6,286046998.8,N
1512173755.4,286046995.0,N
1512173775.2,286046996.9,N
1512173795.1,286046995.8,N
1512173796.0,286046995.8,N
1512173815.8,286046993.6,N
1512173835.6,286046998.3,N
1512173855.4,286046996.9,N
1512173875.3,286046997.9,N
1512173895.1,286046995.1,N
1512173915.8,286046995.8,N
1512173935.7,286046998.1,N
1512173955.5,286047002.8,N
1512173975.3,286047004.9,N
1512173995.2,286047008.1,N
1512174015.9,286047013.6,Y
1512174035.7,286047015.1,P
1512174055.6,286047010.0,N
1512174075.4,286047006.3,N
1512174095.2,286047003.9,N
1512174115.1,286047002.9,N
1512174116.0,286047002.9,N
1512174135.8,286047012.5,N
1512174155.6,286047010.4,N
1512174175.5,286047013.9,N
1512174195.3,286047008.6,N
1512174215.1,286047010.4,N
1512174235.8,286047012.7,N
1512174255.7,286047014.5,N
1512174275.5,286047010.4,N
1512174295.3,286047005.3,N
1512174315.2,286047005.1,N
1512174335.9,286047001.4,N
1512174355.7,286047002.5,N
1512174375.6,286047000.1,N
1512174395.4,286046998.6,N
1512174415.2,286047001.7,N
1512174435.1,286047003.2,N
1512174436.0,286047003.2,N
1512174455.8,286047001.2,N
1512174475.6,286046995.3,N
1512174495.4,286046998.9,N
1512174515.3,286046998.0,N
1512174535.1,286046996.0,N
1512174555.8,286046998.2,N
1512174575.7,286047002.1,N
1512174595.5,286047001.0,N
1512174615.3,286047000.9,N
1512174635.2,286046996.6,N
1512174655.9,286046995.5,N
1512174675.7,286046994.5,N
1512174695.6,286046995.6,N
1512174715.4,286046998.7,N
1512174735.2,286046999.4,N
1512174755.1,286047000.8,N
1512174756.0,286047000.8,N
1512174775.8,286046991.8,N
1512174795.6,286046993.5,N
1512174815.4,286046997.8,N
1512174835.3,286046994.1,N
1512174855.1,286046997.6,N
1512174875.8,286046994.4,N
1512174895.7,286046995.5,N
1512174915.5,286046994.9,N
1512174935.3,286046996.6,N
1512174955.2,286046994.0,N
1512174975.9,286046990.9,N
1512174995.7,286046991.7,N
1512175015.6,286046996.3,N
1512175035.4,286046996.4,N
1512175055.2,286046993.8,N
1512175075.1,286046996.2,N
1512175076.0,286046996.2,N
1512175095.8,286046993.6,N
1512175115.6,286047001.0,N
1512175135.5,286047002.5,N
1512175155.3,286047005.6,N
1512175175.1,286047006.5,N
1512175195.8,286047006.9,N
1512175215.7,286047006.8,N
1512175235.5,286047009.2,N
1512175255.3,286047008.5,N
1512175275.2,286047010.4,N
1512175295.9,286047010.2,N
1512175315.7,286047009.7,N
1512175335.6,286047010.1,N
1512175355.4,286047010.7,N
1512175375.2,286047013.1,N
1512175395.1,286047012.1,N
1512175396.0,286047012.1,N
1512175415.8,286047010.8,N
1512175435.6,286047010.5,N
1512175455.5,286047010.0,N
1512175475.3,286047013.9,N
1512175495.1,286047014.4,N
1512175515.8,286047013.3,N
1512175535.7,286047011.5,N
1512175555.5,286047009.8,N
1512175575.3,286047011.5,N
1512175595.2,286047015.5,N
1512175615.9,286047015.1,N
1512175635.7,286047014.7,N
1512175655.6,286047013.7,N
1512175675.4,286047018.7,Y
1512175695.2,286047010.6,P
1512175715.1,286047006.6,P
1512175716.0,286047006.6,P
1512175735.8,286047004.7,N
1512175755.6,286047006.2,N
1512175775.5,286047011.7,Y
1512175795.3,286047003.7,P
1512175815.1,286047002.9,N
1512175835.9,286047005.4,N
1512175855.7,286047005.4,Y
1512175875.5,286047002.7,P
1512175895.4,286047001.0,N
1512175915.2,286046997.7,N
1512175935.0,286046995.6,N
1512175935.9,286046995.6,N
1512175955.8,286046995.3,N
1512175975.6,286046994.5,N
1512175995.4,286046995.9,N
1512176015.3,286046997.8,N
1512176035.1,286046998.9,N
1512176036.0,286046998.9,N
1512176055.8,286046998.9,N
1512176075.6,286046995.7,N
1512176095.5,286046996.8,N
1512176115.3,286046994.6,N
1512176135.1,286046992.9,N
1512176155.9,286046993.1,N
1512176175.7,286046993.0,N
1512176195.5,286046992.9,N
1512176215.4,286046988.1,Y
1512176235.2,286046996.2,P
1512176255.0,286046998.7,P
1512176255.9,286046998.7,N
1512176275.8,286046993.7,Y
1512176295.6,286046993.9,P
1512176315.4,286046989.4,P
1512176335.3,286046983.0,P
1512176355.1,286046979.0,Y
1512176375.8,286046989.8,P
1512176395.7,286046989.7,P
